Regional Weather Roundup
Issued by NWS

Home | Current Version | Previous Version | Graphics & Text | Print | Product List | Glossary On
Versions: 1 2 3 4 5 6 7 8 9 10 11 12 13 14 15 16 17 18 19 20 21 22 23 24 25 26 27 28 29 30 31 32 33 34 35 36 37 38 39 40 41 42 43 44 45 46 47 48 49 50
000
ASUS43 KBIS 271731
RWRND
NORTH DAKOTA REGIONAL WEATHER ROUNDUP
NATIONAL WEATHER SERVICE EASTERN NORTH DAKOTA/GRAND FORKS ND
1200 PM CDT SAT MAY 27 2017

  NOTE: "FAIR" INDICATES FEW OR NO CLOUDS BELOW 12,000 FEET WITH NO
  SIGNIFICANT WEATHER AND/OR OBSTRUCTIONS TO VISIBILITY.

NDZ001>003-009>011-017-271800-
...NORTHWEST NORTH DAKOTA...

CITY           SKY/WX    TMP DP  RH WIND       PRES   REMARKS
WILLISTON      FAIR      72  42  34 W14G21    29.85F
MINOT          FAIR      71  40  32 W14G22    29.79F
MINOT AFB      FAIR      70  37  30 W18G31    29.77F
$$

NDZ018>021-031>035-040>046-271800-
...SOUTHWEST NORTH DAKOTA...

CITY           SKY/WX    TMP DP  RH WIND       PRES   REMARKS
BISMARCK       PTSUNNY   71  40  32 W14G23    29.87F
DICKINSON      FAIR      67  35  30 W17G24    29.89F
GARRISON         N/A     67  41  38 W21       29.83F
HETTINGER      FAIR      69  38  32 W18       29.95F
$$

NDZ004>008-012>016-024-026-027-054-271800-
...NORTHEAST NORTH DAKOTA...

CITY           SKY/WX    TMP DP  RH WIND       PRES   REMARKS
GRAND FORKS    FAIR      75  43  31 W23       29.77S
GRAND FORKS AF FAIR      72  43  35 NW20G26   29.78S
DEVILS LAKE    FAIR      66  42  41 W17G23    29.80F
$$

NDZ022-023-025-028>030-036>039-047>053-271800-
...SOUTHEAST NORTH DAKOTA...

CITY           SKY/WX    TMP DP  RH WIND       PRES   REMARKS
JAMESTOWN      FAIR      71  41  33 W16G28    29.83S
FARGO          FAIR      74  38  27 W15G29    29.81S
WAHPETON       FAIR      73  32  21 W10G23    29.84S
$$




USA.gov is the U.S. government's official web portal to all federal, state and local government web resources and services.